Regional Weather Roundup
Issued by NWS

Home | Current Version | Previous Version | Graphics & Text | Print | Product List | Glossary On
Versions: 1 2 3 4 5 6 7 8 9 10 11 12 13 14 15 16 17 18 19 20 21 22 23 24 25 26 27 28 29 30 31 32 33 34 35 36 37 38 39 40 41 42 43 44 45 46 47 48 49 50
113
ASUS44 KJAN 270210
RWRMS

MISSISSIPPI HOURLY WEATHER ROUNDUP
NATIONAL WEATHER SERVICE JACKSON MS
900 PM CDT TUE AUG 26 2014

NOTE: "FAIR: INDICATES FEW OR NO CLOUDS BELOW 12,000 FEET WITH NO
SIGNIFICANT WEATHER AND/OR OBSTRUCTIONS TO VISIBILITY.

MSZ001>002-007>008-010>013-018>021-025>028-034>036-270300-
NORTHWEST MISSISSIPPI

CITY           SKY/WX    TMP DP  RH WIND       PRES   REMARKS
CLARKSDALE     FAIR      81  72  74 CALM      30.04S
CLEVELAND      FAIR      79  69  72 NE5       30.02S
GREENWOOD      CLEAR     75  67  76 NE5       30.03R
GREENVILLE     CLEAR     78  67  68 NE5       30.02R
GRENADA        FAIR      75  66  73 CALM      30.04R
OLIVE BRANCH   CLEAR     81  77  89 CALM      30.06R
OXFORD         FAIR      75  66  73 CALM      30.07R
TUNICA         CLEAR     79  72  78 CALM      30.05R
$$

MSZ003>006-009-014>017-022>024-029>033-037>039-270300-
NORTHEAST MISSISSIPPI

CITY           SKY/WX    TMP DP  RH WIND       PRES   REMARKS
BELMONT        FAIR      73  69  89 CALM      30.08R
COLUMBUS AFB   CLEAR     77  67  72 N6        30.04R
CORINTH        FAIR      75  70  83 CALM      30.07R
GOLDN TRIANGLE CLEAR     77  64  65 N3        30.05R
STARKVILLE     FAIR      79  64  61 N3        30.04R
TUPELO         CLEAR     77  67  71 CALM      30.06R
$$

MSZ040-058-270300-
CENTRAL MISSISSIPPI

CITY           SKY/WX    TMP DP  RH WIND       PRES   REMARKS
JACKSON INTL   PTCLDY    76  66  71 CALM      30.02R
JACKSON HAWKNS PTCLDY    79  64  60 CALM      30.03R
MERIDIAN KEY   PTCLDY    75  64  68 CALM      30.02R
MERIDIAN NAS   CLEAR     76  66  71 CALM      30.02S
RAYMOND        FAIR      72  66  83 CALM      30.02S
VICKSBURG      MOCLDY    73  69  87 SE5       30.01R
$$

MSZ059>079-270300-
SOUTH MISSISSIPPI

CITY           SKY/WX    TMP DP  RH WIND       PRES   REMARKS
BROOKHAVEN     FAIR      73  68  83 CALM      30.03R
COLUMBIA       FAIR      73  70  88 MISG      29.99R
HATTIESBURG    MOCLDY    78  67  68 CALM      30.00R
MCCOMB         MOCLDY    80  67  64 N5        30.00R
NATCHEZ        MOCLDY    75  70  83 NE3       30.01R
PINE BELT      MOCLDY    73  64  73 CALM      30.02R
$$

MSZ080>082-270300-
COASTAL MISSISSIPPI

CITY           SKY/WX    TMP DP  RH WIND       PRES   REMARKS
BAY ST LOUIS   CLEAR    N/A N/A N/A CALM      29.98R
BILOXI         MOCLDY    84  72  67 SE6       29.98R
PASCAGOULA     MOCLDY    77  73  87 CALM      29.98R
GULFPORT       MOCLDY    83  73  72 SE9       29.97R
$$



USA.gov is the U.S. government's official web portal to all federal, state and local government web resources and services.